metlocid,date_time,avg_surfchange_cm,std_surfchange_cm,min_surfchange_cm,max_surfchange_cm,n_surfchange_cm,n_comments
VAAM,1/26/04,0.427450987,0.174445905,-0.2,0.6,51,0
VAAM,1/27/04,0.445833342,0.091670657,0.3,0.6,96,0
VAAM,1/28/04,0.458333343,0.10017529,0.3,0.6,96,0
VAAM,1/29/04,0.437500009,0.103872393,0.3,0.6,96,0
VAAM,1/30/04,0.404166675,0.13449059,0.2,0.7,96,0
VAAM,1/31/04,0.379166674,0.096154114,0.2,0.6,96,0
VAAM,2/1/04,0.375000009,0.105630938,0.2,0.6,96,0
VAAM,2/2/04,0.395833344,0.117801501,0.2,0.6,96,0
VAAM,2/3/04,0.32083334,0.119575273,0.2,0.6,96,0
VAAM,2/4/04,0.316666673,0.173306344,0,0.6,96,0
VAAM,2/5/04,0.300000008,0.142163734,0,0.6,96,0
VAAM,2/6/04,0.316666671,0.125376625,0.1,0.5,96,0
VAAM,2/7/04,0.33333334,0.118469776,0.2,0.6,96,0
VAAM,2/8/04,0.233333339,0.138158315,0,0.5,96,0
VAAM,2/9/04,0.333333341,0.16329932,0,0.6,96,0
VAAM,2/10/04,0.27083334,0.09831921,0.1,0.5,96,0
VAAM,2/11/04,0.204166671,0.089344595,0.1,0.4,96,0
VAAM,2/12/04,0.275000007,0.088257996,0.1,0.5,96,0
VAAM,2/13/04,0.291666673,0.115773527,0.1,0.6,96,0
VAAM,2/14/04,0.258333338,0.144853224,-0.1,0.5,96,0
VAAM,2/15/04,0.258333338,0.122832079,0,0.5,96,0
VAAM,2/16/04,0.275000007,0.072547627,0.2,0.4,96,0
VAAM,2/17/04,0.275000008,0.092906294,0.1,0.4,96,0
VAAM,2/18/04,0.254166672,0.108498526,0,0.5,96,0
VAAM,2/19/04,0.254166672,0.091670656,0.1,0.4,96,0
VAAM,2/20/04,0.254166673,0.086956333,0.1,0.4,96,0
VAAM,2/21/04,0.237500005,0.081110712,0.1,0.5,96,0
VAAM,2/22/04,0.241666672,0.070586518,0.1,0.4,96,0
VAAM,2/23/04,0.120833336,0.100437642,0,0.3,96,0
VAAM,2/24/04,0.549999992,0.99768149,0,4.2,96,0
VAAM,2/25/04,8.354166647,2.329125269,1.5,11.1,96,0
VAAM,2/26/04,6.866666675,1.017599533,4,8.5,96,0
VAAM,2/27/04,5.48333329,0.6421456,4.2,6.4,96,0
VAAM,2/28/04,4.633333335,0.458525465,3.8,5.2,96,0
VAAM,2/29/04,4.970833321,0.124745323,4.7,5.1,96,0
VAAM,3/1/04,4.816666742,0.07492695,4.7,4.9,96,0
VAAM,3/2/04,4.970833341,0.084500581,4.7,5.1,96,0
VAAM,3/3/04,4.93750006,0.063660222,4.8,5,96,0
VAAM,3/4/04,4.779166758,0.076662956,4.6,4.9,96,0
VAAM,3/5/04,4.666666547,0.069079168,4.5,4.8,96,0
VAAM,3/6/04,4.479166687,0.104545702,4.3,4.7,96,0
VAAM,3/7/04,4.333333433,0.090223896,4.2,4.6,96,0
VAAM,3/8/04,4.32916681,0.067926692,4.1,4.4,96,0
VAAM,3/9/04,4.225000024,0.088258116,4,4.3,96,0
VAAM,3/10/04,4.275000056,0.066491114,4.2,4.5,96,0
VAAM,3/11/04,4.237499992,0.086145656,4.1,4.4,96,0
VAAM,3/12/04,4.229166627,0.073865821,4.1,4.4,96,0
VAAM,3/13/04,4.295833409,0.067926794,4.2,4.4,96,0
VAAM,3/14/04,4.341666798,0.057430349,4.2,4.4,96,0
VAAM,3/15/04,4.304166794,0.054127918,4.2,4.4,96,0
VAAM,3/16/04,4.304166774,0.061416116,4.2,4.4,96,0
VAAM,3/17/04,4.412500064,0.078472234,4.2,4.5,96,0
VAAM,3/18/04,4.379166782,0.04082479,4.3,4.4,96,0
VAAM,3/19/04,4.325000147,0.052314834,4.2,4.4,96,0
VAAM,3/20/04,4.43750006,0.08614545,4.3,4.6,96,0
VAAM,3/21/04,4.520833313,0.096154024,4.4,4.7,96,0
VAAM,3/22/04,4.570833266,0.1141712,4.3,4.7,96,0
VAAM,3/23/04,4.700000028,0.132982032,4.4,4.8,96,0
VAAM,3/24/04,4.762500028,0.069962537,4.6,4.9,96,0
VAAM,3/25/04,4.87500002,0.39815359,3.9,5.7,96,0
VAAM,3/26/04,5.941666742,0.545925911,4.4,6.4,96,0
VAAM,3/27/04,4.99166665,1.728989129,1.6,7.7,96,0
VAAM,3/28/04,2.787500004,0.790103258,1.5,5,96,0
VAAM,3/29/04,2.699999998,0.100524922,2.4,2.8,96,0
VAAM,3/30/04,1.920833324,0.247903461,1.6,2.3,96,0
VAAM,3/31/04,1.679166699,0.06475324,1.5,1.8,96,0
VAAM,4/1/04,1.587500021,0.078472273,1.4,1.7,96,0
VAAM,4/2/04,2.099999989,0.516669484,1.4,3.2,96,0
VAAM,4/3/04,1.812499985,0.236309321,1.1,2.1,96,0
VAAM,4/4/04,2.187499985,0.234520772,1.7,2.6,96,0
VAAM,4/5/04,2.5458333,0.057886733,2.5,2.7,96,0
VAAM,4/6/04,2.524999976,0.07813616,2.3,2.7,96,0
VAAM,4/7/04,2.566666603,0.055567197,2.4,2.6,96,0
VAAM,4/8/04,2.420833389,0.064753219,2.3,2.6,96,0
VAAM,4/9/04,2.316666683,0.080350155,2.1,2.4,96,0
VAAM,4/10/04,2.2041667,0.035293254,2.1,2.3,96,0
VAAM,4/11/04,2.183333357,0.037463486,2.1,2.2,96,0
VAAM,4/12/04,2.083333254,0.037463397,2,2.1,96,0
VAAM,4/13/04,2.141666641,0.057430412,2,2.2,96,0
VAAM,4/14/04,2.18749999,0.066885634,2.1,2.3,96,0
VAAM,4/15/04,2.2958333,0.067926728,2.1,2.4,96,0
VAAM,4/16/04,2.212500001,0.169984528,1.7,2.4,96,0
VAAM,4/17/04,2.237500002,0.069962392,2.1,2.4,96,0
VAAM,4/18/04,2.175000002,0.052314887,2.1,2.3,96,0
VAAM,4/19/04,2.166666667,0.047387978,2.1,2.2,96,0
VAAM,4/20/04,2.137499958,0.048666496,2.1,2.2,96,0
VAAM,4/21/04,2.112499923,0.033245546,2.1,2.2,96,0
VAAM,4/22/04,2.266666641,0.055567227,2.1,2.3,96,0
VAAM,4/23/04,2.129166663,0.110421856,1.9,2.3,96,0
VAAM,4/24/04,2.229166682,0.335266323,1.6,2.7,96,0
VAAM,4/25/04,2.225000004,0.092906305,2,2.4,96,0
VAAM,4/26/04,2.258333325,0.141916724,2,2.6,96,0
VAAM,4/27/04,2.262499998,0.081110724,2.1,2.4,96,0
VAAM,4/28/04,2.162499984,0.056661563,2.1,2.3,96,0
VAAM,4/29/04,2.104166607,0.054127873,2,2.2,96,0
VAAM,4/30/04,2.074999948,0.059824289,2,2.2,96,0
VAAM,5/1/04,1.837499976,0.129167369,1.6,2.2,96,0
VAAM,5/2/04,1.983333314,0.128691087,1.7,2.2,96,0
VAAM,5/3/04,1.966666654,0.173306355,1.3,2.2,96,0
VAAM,5/4/04,2.095833307,0.10654051,1.9,2.3,96,0
VAAM,5/5/04,1.924999982,0.088258016,1.8,2,96,0
VAAM,5/6/04,1.641666691,0.064345549,1.6,1.8,96,0
VAAM,5/7/04,1.533333341,0.047387922,1.5,1.6,96,0
VAAM,5/8/04,1.487499997,0.033245506,1.4,1.5,96,0
VAAM,5/9/04,1.408333311,0.049559475,1.3,1.5,96,0
VAAM,5/10/04,1.508333335,0.086653191,1.3,1.7,96,0
VAAM,5/11/04,1.854166687,0.348203414,1.1,2.5,96,0
VAAM,5/12/04,2.31249999,0.097602861,2,2.5,96,0
VAAM,5/13/04,2.149999961,0.150787441,1.9,2.7,96,0
VAAM,5/14/04,2.104166647,0.12474537,1.8,2.3,96,0
VAAM,5/15/04,1.691666665,0.344480286,0.7,2.2,96,0
VAAM,5/16/04,2.166666682,0.163299347,1.9,2.4,96,0
VAAM,5/17/04,1.883333301,0.460358364,0.5,2.4,96,0
VAAM,5/18/04,1.68749997,0.213861724,1.2,1.9,96,0
VAAM,5/19/04,1.787499979,0.093189089,1.6,1.9,96,0
VAAM,5/20/04,1.545833344,0.070958369,1.4,1.6,96,0
VAAM,5/21/04,1.379166638,0.1195753,1.3,1.6,96,0
VAAM,5/22/04,1.520833343,0.116000619,1.2,1.6,96,0
VAAM,5/23/04,1.145833368,0.050087654,1.1,1.2,96,0
VAAM,5/24/04,0.995833342,0.102512307,0.8,1.1,96,0
VAAM,5/25/04,0.795833342,0.035293259,0.7,0.9,96,0
VAAM,5/26/04,0.737499997,0.063660286,0.6,0.9,96,0
VAAM,5/27/04,0.695833335,0.089344586,0.6,1,96,0
VAAM,5/28/04,1.100000024,0.071081882,0.9,1.2,96,0
VAAM,5/29/04,0.950000018,0.239297232,0.5,1.2,96,0
VAAM,5/30/04,0.53750001,0.056661517,0.4,0.6,96,0
VAAM,5/31/04,0.50833334,0.064345565,0.4,0.6,96,0
VAAM,6/1/04,0.579166675,0.570856557,-0.4,1.2,96,0
VAAM,6/2/04,-0.466666669,0.321400444,-0.9,0,96,0
VAAM,6/3/04,0.754166668,0.279818233,0.2,1,96,0
VAAM,6/4/04,0.7375,0.122474479,0.5,0.9,96,0
VAAM,6/5/04,0.645833337,0.10043763,0.4,0.9,96,0
VAAM,6/6/04,1.316666656,0.571363385,0.4,2.1,96,0
VAAM,6/7/04,1.529166679,0.29803448,0.9,2,96,0
VAAM,6/8/04,1.604166677,0.253778463,0.6,1.9,96,0
VAAM,6/9/04,1.258333337,0.482900598,-0.1,1.8,96,0
VAAM,6/10/04,0.779166667,0.235714663,0.2,1.1,96,0
VAAM,6/11/04,0.408333336,0.252843474,0,0.9,96,0
VAAM,6/12/04,0.504166673,0.149325969,0.1,0.7,96,0
VAAM,6/13/04,0.016666667,0.259012971,-0.7,0.5,96,0
VAAM,6/14/04,0.300000005,0.17888544,-0.1,0.6,96,0
VAAM,6/15/04,-0.033333335,0.555672515,-1.2,0.5,96,0
VAAM,6/16/04,-0.675000004,0.449795272,-2,-0.1,96,0
VAAM,6/17/04,-0.133333336,0.118469777,-0.5,0.1,96,0
VAAM,6/18/04,0.133333336,0.090223896,0,0.3,96,0
VAAM,6/19/04,0.170833336,0.045691568,0.1,0.2,96,0
VAAM,6/20/04,0.033333333,0.202441246,-0.3,0.2,96,0
VAAM,6/21/04,-0.208333337,0.13585338,-0.5,0,96,0
VAAM,6/22/04,-0.12916667,0.114171312,-0.3,0.1,96,0
VAAM,6/23/04,-0.079166668,0.057886763,-0.2,0,96,0
VAAM,6/24/04,-0.087500001,0.052815469,-0.2,0,96,0
VAAM,6/25/04,-0.200000004,0.100524939,-0.5,-0.1,96,0
VAAM,6/26/04,-0.162500003,0.063660284,-0.3,0,96,0
VAAM,6/27/04,-0.220833339,0.057886766,-0.3,-0.1,96,0
VAAM,6/28/04,-0.387500006,0.181948521,-0.7,-0.1,96,0
VAAM,6/29/04,-0.566666676,0.090223893,-0.7,-0.4,96,0
VAAM,6/30/04,-0.612500008,0.088555657,-0.8,-0.4,96,0
VAAM,7/1/04,-0.695833338,0.073865686,-0.8,-0.6,96,0
VAAM,7/2/04,-0.325000002,0.234408547,-0.8,0,96,0
VAAM,7/3/04,-0.195833337,0.061416042,-0.3,-0.1,96,0
VAAM,7/4/04,-0.14166667,0.312432457,-1.2,0.2,96,0
VAAM,7/5/04,0.120833335,0.064753244,0,0.2,96,0
VAAM,7/6/04,-0.083333335,0.069079157,-0.2,0,96,0
VAAM,7/7/04,-0.154166669,0.050087643,-0.2,-0.1,96,0
VAAM,7/8/04,-0.329166674,0.184628603,-0.6,0,96,0
VAAM,7/9/04,-0.583333349,0.114860709,-0.8,-0.2,96,0
VAAM,7/10/04,-0.333333342,0.170859546,-0.6,-0.1,96,0
VAAM,7/11/04,-0.145833336,0.293048113,-0.6,0.2,96,0
VAAM,7/12/04,0.058333334,0.076318815,-0.1,0.2,96,0
VAAM,7/13/04,0.083333334,0.155371657,-0.3,0.5,96,0
VAAM,7/14/04,0.150000003,0.076777191,0,0.3,96,0
VAAM,7/15/04,0.133333335,0.074926866,-0.1,0.2,96,0
VAAM,7/16/04,0.020833334,0.057886763,-0.1,0.1,96,0
VAAM,7/17/04,-0.079166668,0.081971327,-0.2,0.1,96,0
VAAM,7/18/04,-0.104166669,0.121323118,-0.3,0.1,96,0
VAAM,7/19/04,-0.479166674,0.086956335,-0.6,-0.3,96,0
VAAM,7/20/04,-0.704166672,0.098319207,-0.8,-0.4,96,0
VAAM,7/21/04,-0.841666659,0.064345546,-0.9,-0.7,96,0
VAAM,7/22/04,-0.849999999,0.104629671,-1,-0.7,96,0
VAAM,7/23/04,-0.966666671,0.121972109,-1.1,-0.7,96,0
VAAM,7/24/04,-0.429166672,0.227534459,-0.9,-0.1,96,0
VAAM,7/25/04,-0.500000004,0.153554374,-0.9,-0.3,96,0
VAAM,7/26/04,-0.783333334,0.062688314,-0.9,-0.7,96,0
VAAM,7/27/04,-0.954166656,0.057886776,-1.1,-0.9,96,0
VAAM,7/28/04,-1.079166686,0.050087654,-1.2,-1,96,0
VAAM,7/29/04,-1.112500027,0.044129008,-1.2,-1,96,0
VAAM,7/30/04,-0.974999994,0.078136202,-1.1,-0.9,96,0
VAAM,7/31/04,-1,0.076777208,-1.2,-0.9,96,0
VAAM,8/1/04,-0.629166675,0.405726558,-1.1,0,96,0
VAAM,8/2/04,-0.104166669,0.137585703,-0.6,0,96,0
VAAM,8/3/04,-0.033333334,0.062688314,-0.1,0.1,96,0
VAAM,8/4/04,-0.075000002,0.184105238,-0.6,0.2,96,0
VAAM,8/5/04,-0.175000003,0.133771213,-0.5,0,96,0
VAAM,8/6/04,-0.045833334,0.076662855,-0.3,0.1,96,0
VAAM,8/7/04,-0.262500005,0.198547359,-0.6,0.2,96,0
VAAM,8/8/04,0.008333333,0.19876814,-0.5,0.4,96,0
VAAM,8/9/04,-0.091666669,0.190106162,-0.5,0.3,96,0
VAAM,8/10/04,-0.133333337,0.103279559,-0.3,0,96,0
VAAM,8/11/04,-0.154166671,0.108498528,-0.3,0.1,96,0
VAAM,8/12/04,-0.266666675,0.055567254,-0.4,-0.2,96,0
VAAM,8/13/04,-0.266666675,0.055567254,-0.4,-0.2,96,0
VAAM,8/14/04,-0.37083334,0.180009743,-1,-0.1,96,0
VAAM,8/15/04,-0.15416667,0.091670657,-0.3,0,96,0
VAAM,8/16/04,-0.229166673,0.067926693,-0.3,-0.1,96,0
VAAM,8/17/04,-0.241666673,0.104293787,-0.6,-0.1,96,0
VAAM,8/18/04,-0.366666675,0.055567247,-0.5,-0.3,96,0
VAAM,8/19/04,-0.52083334,0.070958356,-0.7,-0.4,96,0
VAAM,8/20/04,-0.616666682,0.047387899,-0.7,-0.5,96,0
VAAM,8/21/04,-0.50833334,0.064345565,-0.6,-0.4,96,0
VAAM,8/22/04,-0.62916668,0.045691551,-0.7,-0.6,96,0
VAAM,8/23/04,-0.63333334,0.062688301,-0.7,-0.5,96,0
VAAM,8/24/04,-0.245833337,0.142102016,-0.5,0,96,0
VAAM,8/25/04,-0.079166669,0.116000608,-0.3,0.1,96,0
VAAM,8/26/04,-0.004166667,0.140612697,-0.3,0.4,96,0
VAAM,8/27/04,-0.008333334,0.08164966,-0.3,0.1,96,0
VAAM,8/28/04,-0.058333334,0.049559464,-0.1,0,96,0
VAAM,8/29/04,-0.054166667,0.096154117,-0.4,0.1,96,0
VAAM,8/30/04,0.050000001,0.08207827,-0.1,0.3,96,0
VAAM,8/31/04,0.49166667,0.351737546,-0.3,0.8,96,0
VAAM,9/1/04,0.850000014,0.136111422,0.7,1.2,96,0
VAAM,9/2/04,1.120833357,0.076662859,1,1.3,96,0
VAAM,9/3/04,1.337499971,0.063660276,1.2,1.4,96,0
VAAM,9/4/04,1.275000006,0.092906259,1.1,1.4,96,0
VAAM,9/5/04,1.362499992,0.187644656,1.2,2.1,96,0
VAAM,9/6/04,1.12500003,0.066491012,1,1.2,96,0
VAAM,9/7/04,1.112500027,0.044129008,1,1.2,96,0
VAAM,9/8/04,1.083333353,0.055567263,1,1.2,96,0
VAAM,9/9/04,1.058333347,0.057430368,0.9,1.1,96,0
VAAM,9/10/04,0.941666665,0.104293785,0.7,1.1,96,0
VAAM,9/11/04,0.829166666,0.152119521,0.6,1.1,96,0
VAAM,9/12/04,0.770833336,0.079361489,0.6,1,96,0
VAAM,9/13/04,0.650000005,0.183532581,0.3,1,96,0
VAAM,9/14/04,0.516666676,0.069079164,0.4,0.6,96,0
VAAM,9/15/04,0.862500008,0.245913985,0.4,1.2,96,0
VAAM,9/16/04,1.112500002,0.184248112,0.7,1.4,96,0
VAAM,9/17/04,1.283333311,0.080350087,1.1,1.4,96,0
VAAM,9/18/04,1.079166681,0.129709549,0.9,1.3,96,0
VAAM,9/19/04,1.141666668,0.181030183,0.7,1.3,96,0
VAAM,9/20/04,1.170833317,0.162815132,0.8,1.3,96,0
VAAM,9/21/04,0.854166667,0.192445021,0.6,1.3,96,0
VAAM,9/22/04,1.054166662,0.192445016,0.8,1.3,96,0
VAAM,9/23/04,4.683333347,1.866416026,0.5,6.9,96,0
VAAM,9/24/04,5.5,0.058038045,5.4,5.6,96,0
VAAM,9/25/04,5.425000052,0.078136167,5.2,5.5,96,0
VAAM,9/26/04,5.26666671,0.055567414,5.2,5.4,96,0
VAAM,9/27/04,5.262500087,0.069962512,5,5.3,96,0
VAAM,9/28/04,5.158333182,0.0574303,5,5.2,96,0
VAAM,9/29/04,5.237499972,0.056661674,5.1,5.3,96,0
VAAM,9/30/04,5.199999869,0.050262541,5.1,5.3,96,0
VAAM,10/1/04,5.145833194,0.057886707,5,5.2,96,0
VAAM,10/2/04,5.124999881,0.052314786,5,5.2,96,0
VAAM,10/3/04,5.074999928,0.072547556,4.9,5.2,96,0
VAAM,10/4/04,5.091666579,0.0574303,5,5.2,96,0
VAAM,10/5/04,5.112499952,0.1459993,4.7,5.3,96,0
VAAM,10/6/04,5.004166643,0.146479131,4.7,5.3,96,0
VAAM,10/7/04,5.033333302,0.080350034,4.9,5.2,96,0
VAAM,10/8/04,4.900000095,0.058038045,4.8,5,96,0
VAAM,10/9/04,4.712499976,0.088555779,4.6,4.9,96,0
VAAM,10/10/04,4.475000004,0.097332817,4.2,4.6,96,0
VAAM,10/11/04,4.208333294,0.081649761,4,4.3,96,0
VAAM,10/12/04,3.991666665,0.08665311,3.8,4.1,96,0
VAAM,10/13/04,3.908333341,0.144853214,3.6,4.1,96,0
VAAM,10/14/04,3.929166694,0.098319187,3.7,4.1,96,0
VAAM,10/15/04,3.958333313,0.141916671,3.6,4.2,96,0
VAAM,10/16/04,3.916666667,0.141173012,3.6,4.1,96,0
VAAM,10/17/04,3.916666657,0.180447761,3.3,4.2,96,0
VAAM,10/18/04,3.962500016,0.090901874,3.7,4.1,96,0
VAAM,10/19/04,4.029166619,0.089344558,3.8,4.1,96,0
VAAM,10/20/04,4.016666651,0.06907909,3.9,4.1,96,0
VAAM,10/21/04,3.970833321,0.089344584,3.8,4.1,96,0
VAAM,10/22/04,3.962500036,0.056661452,3.9,4.1,96,0
VAAM,10/23/04,3.858333369,0.064345604,3.7,4,96,0
VAAM,10/24/04,3.900000036,0.091766283,3.7,4.1,96,0
VAAM,10/25/04,3.862499982,0.11898696,3.6,4.1,96,0
VAAM,10/26/04,3.824999998,0.066491028,3.7,4,96,0
VAAM,10/27/04,3.800000002,0.129777137,3.6,4.1,96,0
VAAM,10/28/04,3.75000001,0.132981999,3.6,4.1,96,0
VAAM,10/29/04,3.691666623,0.112077723,3.6,3.9,96,0
VAAM,10/30/04,3.62499999,0.127320572,3.5,3.9,96,0
VAAM,10/31/04,3.600000004,0.136111405,3.4,3.9,96,0
VAAM,11/1/04,3.462499986,0.138602013,3.2,3.7,96,0
VAAM,11/2/04,3.037499984,0.147434193,2.7,3.2,96,0
VAAM,11/3/04,2.641666661,0.091383152,2.5,2.8,96,0
VAAM,11/4/04,2.429166704,0.089344562,2.2,2.6,96,0
VAAM,11/5/04,2.133333315,0.118469801,1.9,2.4,96,0
VAAM,11/6/04,1.891666646,0.11207765,1.7,2.1,96,0
VAAM,11/7/04,1.600000024,0.116076228,1.3,1.7,96,0
VAAM,11/8/04,1.141666688,0.126213413,0.8,1.3,96,0
VAAM,11/9/04,0.475000004,0.123969431,0.3,0.7,96,0
VAAM,11/10/04,0.366666676,0.165857688,-0.2,0.6,96,0
VAAM,11/11/04,0.366666675,0.07492686,0.3,0.5,96,0
VAAM,11/12/04,0.387500008,0.101825446,0.2,0.6,96,0
VAAM,11/13/04,0.412500009,0.105879773,0.3,0.6,96,0
VAAM,11/14/04,0.487500008,0.078472261,0.4,0.6,96,0
VAAM,11/15/04,0.504166675,0.102512303,0.3,0.7,96,0
VAAM,11/16/04,0.541666674,0.086653175,0.4,0.8,96,0
VAAM,11/17/04,0.587500005,0.088555658,0.4,0.7,96,0
VAAM,11/18/04,0.575000008,0.101566675,0.3,0.8,96,0
VAAM,11/19/04,0.575000008,0.101566679,0.5,0.8,96,0
VAAM,11/20/04,0.529166675,0.128076185,0.4,0.8,96,0
VAAM,11/21/04,0.445833338,0.164103087,0.2,0.8,96,0
VAAM,11/22/04,0.545833342,0.07095836,0.5,0.8,96,0
VAAM,11/23/04,0.558333339,0.091383135,0.4,0.8,96,0
VAAM,11/24/04,0.550000007,0.082078269,0.4,0.7,96,0
VAAM,11/25/04,0.558333341,0.076318816,0.4,0.7,96,0
VAAM,11/26/04,0.516666671,0.090223895,0.4,0.8,96,0
VAAM,11/27/04,0.520833338,0.104545802,0.4,0.8,96,0
VAAM,11/28/04,0.562500009,0.075741946,0.4,0.7,96,0
VAAM,11/29/04,0.575000012,0.072547626,0.4,0.7,96,0
VAAM,11/30/04,0.537500008,0.11539406,0.3,0.7,96,0
VAAM,12/1/04,0.294623659,0.172176345,0,0.6,93,3
VAAM,12/2/04,0.14166667,0.100175288,0,0.3,96,0
VAAM,12/3/04,0.054166668,0.13604695,-0.2,0.3,96,0
VAAM,12/4/04,-0.133333331,0.340484684,-1.3,0.3,96,0
VAAM,12/5/04,-0.145833337,0.142102018,-0.4,0.2,96,0
VAAM,12/6/04,-0.291666671,0.233809041,-0.7,0.1,96,0
VAAM,12/7/04,-0.237500002,0.284049664,-0.7,0.3,96,0
VAAM,12/8/04,-0.283333334,0.306651409,-0.9,0.2,96,0
VAAM,12/9/04,-0.212500003,0.239846445,-0.8,0.2,96,0
VAAM,12/10/04,-0.25416667,0.264342947,-0.8,0.2,96,0
VAAM,12/11/04,-0.358333338,0.334559149,-1.3,0.1,96,0
VAAM,12/12/04,-0.291666671,0.257790887,-0.8,0.3,96,0
VAAM,12/13/04,-0.29166667,0.190106157,-0.5,0.2,96,0
VAAM,12/14/04,-0.366666673,0.202441244,-0.8,-0.1,96,0
VAAM,12/15/04,-0.283333338,0.29546277,-0.8,0.1,96,0
VAAM,12/16/04,-0.304166673,0.231205844,-0.8,0.1,96,0
VAAM,12/17/04,-0.300000004,0.198944585,-0.8,0,96,0
VAAM,12/18/04,-0.350000005,0.278340952,-1.1,0.2,96,0
VAAM,12/19/04,-0.287500006,0.113554996,-0.5,-0.1,96,0
VAAM,12/20/04,-0.120833334,0.273733131,-0.7,0.3,96,0
VAAM,12/21/04,-0.020833334,0.142102017,-0.3,0.2,96,0
VAAM,12/22/04,0.15416667,0.096154119,0,0.3,96,0
VAAM,12/23/04,0.183333338,0.090223896,0.1,0.4,96,0
VAAM,12/24/04,0.16666667,0.094775824,0,0.4,96,0
VAAM,12/25/04,0.145833336,0.081971328,0,0.3,96,0
VAAM,12/26/04,0.083333335,0.131922361,-0.1,0.4,96,0
VAAM,12/27/04,0.020833334,0.104545803,-0.1,0.2,96,0
VAAM,12/28/04,0.045833334,0.119575274,-0.1,0.2,96,0
VAAM,12/29/04,0.045833334,0.112312223,-0.1,0.2,96,0
VAAM,12/30/04,0.008333334,0.129506489,-0.1,0.3,96,0
VAAM,12/31/04,0.0125,0.113554997,-0.1,0.3,96,0
VAAM,1/1/05,0.054166668,0.104545804,-0.1,0.3,96,0
VAAM,1/2/05,0.041666667,0.104293784,-0.1,0.2,96,0
VAAM,1/3/05,0.141666668,0.166491137,-0.1,0.5,96,0
VAAM,1/4/05,0.058333334,0.076318815,-0.1,0.2,96,0
VAAM,1/5/05,0.020833334,0.091670655,-0.2,0.2,96,0
VAAM,1/6/05,0.116666669,0.12869112,-0.1,0.3,96,0
VAAM,1/7/05,0.016666667,0.114860711,-0.2,0.4,96,0
VAAM,1/8/05,0.070833334,0.06792669,-0.1,0.2,96,0
VAAM,1/9/05,0.112500002,0.033245499,0.1,0.2,96,0
VAAM,1/10/05,0.15416667,0.086956333,0,0.4,96,0
VAAM,1/11/05,0.120833335,0.057886764,0,0.3,96,0
VAAM,1/12/05,0.125000002,0.066490998,0,0.3,96,0
VAAM,1/13/05,0.145833336,0.129709528,0,0.5,96,0
VAAM,1/14/05,0.141666669,0.057430356,0.1,0.3,96,0
VAAM,1/15/05,0.162500003,0.095421505,0,0.4,96,0
VAAM,1/16/05,0.162500004,0.103872395,0,0.4,96,0
VAAM,1/17/05,0.095833335,0.089344595,0,0.3,96,0
VAAM,1/18/05,0.158333338,0.104293786,0,0.3,96,0
VAAM,1/19/05,0.14166667,0.095880046,0,0.3,96,0
VAAM,1/20/05,0.133333336,0.103279558,-0.1,0.4,96,0
VAAM,1/21/05,0.145833336,0.164103094,-0.1,0.5,96,0
VAAM,1/22/05,0.091666669,0.171474517,-0.2,0.4,96,0
VAAM,1/23/05,0.058333334,0.119354993,-0.1,0.4,96,0
VAAM,1/24/05,0.050000001,0.064888569,0,0.2,96,0
VAAM,1/25/05,0.054166667,0.091670655,-0.1,0.2,96,0
VAAM,1/26/05,0.066666668,0.131922362,-0.1,0.3,96,0
VAAM,1/27/05,0.058333335,0.138918128,-0.2,0.3,96,0
VAAM,1/28/05,0.020833334,0.156216227,-0.2,0.4,96,0
VAAM,1/29/05,0.037500001,0.158446409,-0.2,0.3,96,0
VAAM,1/30/05,0.070833336,0.160208202,-0.2,0.3,96,0
VAAM,1/31/05,0.033333334,0.147017128,-0.2,0.3,96,0
VAAM,2/1/05,0.054166668,0.198900491,-0.2,0.4,96,0
VAAM,2/2/05,0.029166667,0.160208201,-0.2,0.3,96,0
VAAM,2/3/05,-0.054166667,0.091670655,-0.2,0.1,96,0
VAAM,2/4/05,0.020833334,0.132916016,-0.1,0.4,96,0
VAAM,2/5/05,-0.054166668,0.150729224,-0.3,0.2,96,0
VAAM,2/6/05,0.033333334,0.147017128,-0.1,0.3,96,0
VAAM,2/7/05,-0.050000001,0.112390299,-0.2,0.2,96,0
VAAM,2/8/05,-0.029166666,0.128076187,-0.2,0.3,96,0
VAAM,2/9/05,-0.0125,0.179619485,-0.2,0.4,96,0
VAAM,2/10/05,0.029166668,0.184628602,-0.2,0.4,96,0
VAAM,2/11/05,-0.008333333,0.081649659,-0.1,0.2,96,0
VAAM,2/12/05,-0.062500001,0.141607317,-0.3,0.2,96,0
VAAM,2/13/05,-0.079166667,0.139107434,-0.2,0.3,96,0
VAAM,2/14/05,-0.100000001,0.132981995,-0.2,0.2,96,0
VAAM,2/15/05,-0.14166667,0.100175288,-0.3,0,96,0
VAAM,2/16/05,-0.112500002,0.072909462,-0.2,0.1,96,0
VAAM,2/17/05,-0.145833336,0.057886763,-0.2,0,96,0
VAAM,2/18/05,-0.120833335,0.070958353,-0.2,0,96,0
VAAM,2/19/05,-0.141666669,0.057430355,-0.2,0,96,0
VAAM,2/20/05,-0.125000002,0.066490998,-0.2,0,96,0
VAAM,2/21/05,0.258333337,0.548234813,-0.3,1.4,96,0
VAAM,2/22/05,2.154166649,0.244482967,1.5,2.6,96,0
VAAM,2/23/05,3.591666659,0.380489062,2.6,4,96,0
VAAM,2/24/05,3.833333333,0.074926892,3.7,4,96,0
VAAM,2/25/05,3.68750002,0.093189125,3.5,3.9,96,0
VAAM,2/26/05,3.720833321,0.081971344,3.6,3.9,96,0
VAAM,2/27/05,3.6875,0.127527093,3.4,3.9,96,0
VAAM,2/28/05,3.608333319,0.119354998,3.3,3.8,96,0
VAAM,3/1/05,3.466666689,0.107278933,3.3,3.7,96,0
VAAM,3/2/05,3.6083333,0.138918119,3.3,3.9,96,0
VAAM,3/3/05,3.137499998,0.31363739,2.5,3.6,96,0
VAAM,3/4/05,2.720833321,0.123046137,2.5,3,96,0
VAAM,3/5/05,2.983333319,0.155371632,2.7,3.2,96,0
VAAM,3/6/05,3.149999996,0.11607621,2.9,3.4,96,0
VAAM,3/7/05,3.237499992,0.163674929,2.9,3.5,96,0
VAAM,3/8/05,3.233333349,0.118469824,3,3.4,96,0
VAAM,3/9/05,3.191666653,0.108255738,3,3.4,96,0
VAAM,3/10/05,3.133333325,0.131922355,2.9,3.4,96,0
VAAM,3/11/05,3.112499942,0.072909465,2.9,3.3,96,0
VAAM,3/12/05,3.154166619,0.108498547,3,3.4,96,0
VAAM,3/13/05,3.233333309,0.111134533,3,3.4,96,0
VAAM,3/14/05,3.291666667,0.09588009,3.1,3.4,96,0
VAAM,3/15/05,3.31250003,0.113555027,3.1,3.5,96,0
VAAM,3/16/05,3.262499978,0.081110703,3,3.4,96,0
VAAM,3/17/05,3.179166645,0.116000617,3,3.4,96,0
VAAM,3/18/05,3.087499976,0.093189106,2.9,3.3,96,0
VAAM,3/19/05,2.933333347,0.111134473,2.7,3.1,96,0
VAAM,3/20/05,2.783333331,0.135076373,2.6,3.1,96,0
VAAM,3/21/05,3.145833333,0.302938827,2.5,3.7,96,0
VAAM,3/22/05,2.733333319,0.556429712,2.1,3.7,96,0
VAAM,3/23/05,2.199999988,0.158943895,1.8,2.7,96,0
VAAM,3/24/05,2.279166649,0.050087619,2.2,2.4,96,0
VAAM,3/25/05,2.308333308,0.040175086,2.2,2.4,96,0
VAAM,3/26/05,2.266666651,0.062688301,2.1,2.4,96,0
VAAM,3/27/05,2.108333305,0.12283207,1.9,2.3,96,0
VAAM,3/28/05,2.091666644,0.086653187,1.9,2.2,96,0
VAAM,3/29/05,2.058333308,0.070586508,2,2.2,96,0
VAAM,3/30/05,1.991666645,0.081649651,1.9,2.2,96,0
VAAM,3/31/05,2.099999974,0.087057159,2,2.3,96,0
VAAM,4/1/05,1.93749998,0.180787741,1.6,2.3,96,0
VAAM,4/2/05,1.474999994,0.120525195,1.3,1.7,96,0
VAAM,4/3/05,1.454166656,0.076662871,1.4,1.7,96,0
VAAM,4/4/05,1.600000009,0.129777145,1.4,1.8,96,0
VAAM,4/5/05,1.704166671,0.2570753,1.3,2.3,96,0
VAAM,4/6/05,2.400000026,0.076777208,2.3,2.5,96,0
VAAM,4/7/05,2.383333395,0.074926876,2.2,2.5,96,0
VAAM,4/8/05,2.225000014,0.127320627,2,2.4,96,0
VAAM,4/9/05,1.99999997,0.108579341,1.8,2.2,96,0
VAAM,4/10/05,2.045833314,0.251277452,1.3,2.4,96,0
VAAM,4/11/05,2.295833349,0.093939178,2.1,2.4,96,0
VAAM,4/12/05,2.229166647,0.093939166,2.1,2.4,96,0
VAAM,4/13/05,2.029166654,0.093939133,1.9,2.3,96,0
VAAM,4/14/05,2.083333313,0.114860696,2,2.3,96,0
VAAM,4/15/05,2.208333343,0.108255737,2,2.4,96,0
VAAM,4/16/05,2.141666626,0.1001753,1.9,2.3,96,0
VAAM,4/17/05,1.904166649,0.182333762,1.5,2.1,96,0
VAAM,4/18/05,1.470833331,0.124745374,1.2,1.6,96,0
VAAM,4/19/05,1.458333323,0.18562367,1.2,2.2,96,0
VAAM,4/20/05,2.016666626,0.107278935,1.8,2.2,96,0
VAAM,4/21/05,1.820833291,0.040824839,1.8,1.9,96,0
VAAM,4/22/05,1.808333315,0.326920766,0.8,2.1,96,0
VAAM,4/23/05,2.008333333,0.986185298,0.3,3.9,96,0
VAAM,4/24/05,4.008333288,0.907009717,0.3,4.8,96,0
VAAM,4/25/05,4.366666685,0.329166949,3,4.6,96,0
VAAM,4/26/05,5.479166667,0.132915944,5.1,5.7,96,0
VAAM,4/27/05,5.445833365,0.086956305,5.2,5.6,96,0
VAAM,4/28/05,5.120833278,0.091670684,5,5.3,96,0
VAAM,4/29/05,5.004166663,0.045691523,4.9,5.1,96,0
VAAM,4/30/05,4.966666698,0.055567197,4.9,5.1,96,0
VAAM,5/1/05,4.983333349,0.055567197,4.9,5.1,96,0
VAAM,5/2/05,4.14166673,1.059460372,2.1,5,96,0
VAAM,5/3/05,2.041666652,0.163942648,1.6,2.3,96,0
VAAM,5/4/05,1.066666667,0.402797236,0.2,1.9,96,0
VAAM,5/5/05,0.016666668,0.279347615,-0.5,0.4,96,0
VAAM,5/6/05,0.399999996,0.727215307,-0.4,1.9,96,0
VAAM,5/7/05,1.762499988,0.150262918,1.3,2,96,0
VAAM,5/8/05,1.704166686,0.07936147,1.5,1.8,96,0
VAAM,5/9/05,1.629166692,0.098319223,1.3,1.8,96,0